Regional Weather Roundup
Issued by NWS Kansas City/Pleasant Hill, MO

Home | Current Version | Previous Version | Text Only | Print | Product List | Glossary On
Versions: 1 2 3 4 5 6 7 8 9 10 11 12 13 14 15 16 17 18 19 20 21 22 23 24 25 26 27 28 29 30 31 32 33 34 35 36 37 38 39 40 41 42 43 44 45 46 47 48 49 50
000
ASUS43 KEAX 232310
RWREAX

WEATHER ROUNDUP FOR EASTERN KANSAS AND NORTHWEST MISSOURI
NATIONAL WEATHER SERVICE KANSAS CITY/PLEASANT HILL MO
500 PM CST MON JAN 23 2017

KSZ040-057-103>105-MOZ028-029-037-043-240000-
...KANSAS CITY METROPOLITAN AREA...

CITY           SKY/WX    TMP DP  RH WIND       PRES   REMARKS
K.C. INTL      PTCLDY    39  30  70 E7        29.82S WCI  34
K.C. DOWNTOWN  CLEAR     42  32  67 E7        29.83S
LEES SUMMIT    CLEAR     41  33  73 E7        29.83F
OLATHE - IXD   CLEAR     42  34  73 SE6       29.83R
OLATHE - OJC   CLEAR     42  34  73 SE7       29.82S
LAWRENCE       CLEAR     41  34  76 E8        29.83R HAZE

$$

MOZ001>008-011>017-020>025-030>033-038>040-044>046-053-054-240000-
...NORTHERN AND CENTRAL MISSOURI...

CITY           SKY/WX    TMP DP  RH WIND       PRES   REMARKS
ST. JOSEPH     CLEAR     39  32  76 E8        29.83F WCI  33
MOSBY            N/A     41  32  70 CALM      29.85R
WARRENSBURG    CLEAR     41  32  70 CALM      29.85S
WHITEMAN AFB   PTCLDY    40  37  90 CALM      29.84F
CLINTON        CLEAR     41  32  70 E3        29.86S
SEDALIA        CLEAR     38  31  76 CALM      29.87F
WARSAW         NOT AVBL
CHILLICOTHE      N/A     36  30  79 N5        29.88R WCI  32
KIRKSVILLE     CLOUDY    33  30  88 CALM      29.86R

$$

MOZ041-047>049-056>058-063>065-088>090-097-240000-
...EASTERN AND SOUTHERN MISSOURI...

CITY           SKY/WX    TMP DP  RH WIND       PRES   REMARKS
ST. LOUIS INTL CLOUDY    43  34  70 N8        29.85R
SPIRIT OF STL  CLOUDY    43  34  70 NW9       29.85R
COLUMBIA       CLOUDY    37  31  78 W6        29.86S WCI  32
JEFFERSON CITY CLOUDY    38  32  79 NW7       29.88R WCI  33
ROLLA          CLOUDY    41  33  73 W6        29.84R
OSAGE BEACH    PTCLDY    43  34  70 NW5       29.87R
SPRINGFIELD    CLEAR     49  30  48 NE5       29.83S
BRANSON        CLEAR     48  32  53 CALM      29.84S
JOPLIN         CLEAR     50  31  48 VRB5      29.82F
WEST PLAINS    CLEAR     48  32  53 NW6       29.83S

$$

IAZ060-094-KSZ022-034>040-054-083-096-NEZ052-066-093-240000-
...KANSAS...SOUTHEAST NEBRASKA AND IOWA...

CITY           SKY/WX    TMP DP  RH WIND       PRES   REMARKS
TOPEKA         CLEAR     42  35  76 E9        29.81S
MANHATTAN      CLEAR     46  36  68 E12       29.74F
EMPORIA        CLEAR     52  31  44 SE10      29.75F
CHANUTE        CLEAR     50  36  58 SE10      29.80S
WICHITA        PTCLDY    53  33  46 S14       29.72F
OMAHA          MOCLDY    34  27  75 E8        29.81S WCI  27
LINCOLN        MOCLDY    36  31  82 SE9       29.78S WCI  29
FALLS CITY     CLOUDY    37  31  78 E8        29.81S WCI  31
LAMONI         CLOUDY    33  28  81 N5        29.84S WCI  29
DES MOINES     CLOUDY    34  28  79 W3        29.86R

$$




USA.gov is the U.S. government's official web portal to all federal, state and local government web resources and services.